051103 704  0.1+  0.3+    051225 048  0.1-  0.0     061027 703  1.9-  0.0   

051103 704  0.3+  0.5+    051225 048  0.7-  0.6-    061027 703  0.2-  0.3-  

051103 349  0.3-  0.1+    051227 699  1.8+  1.0+    061107 644  0.3-  0.0   

051103 349  0.2-  0.1+    051227 699  1.8+  0.2+    061107 644  0.8-  0.1+  

051103 349  0.0   0.2-    051227 699 (2.1+  0.5+)   061107 644  0.9-  0.1-  

051104 704  0.1-  0.6+    051227 699  1.8+  0.4+    061109 A24 (4.1+  1.2+) 

051104 704  0.1-  0.0     051228 704  0.0   1.1+    061109 A24  0.3+  0.3+  

051104 704  0.5+  0.3+    051228 704  0.3-  0.7+    061109 J67  0.5-  0.0   

051104 704  0.1+  0.1-    051228 704  0.4-  0.0     061109 J67  0.2-  0.2+  

051104 704  0.6+  0.3+    051228 704  0.8-  0.7+    061109 J67  0.7-  0.2+  

051105 213  0.3-  0.1-    051230 699 (2.1+  0.7+)   061109 J97  0.5+  0.4-  

051105 213  0.4-  0.1-    051230 699  0.2+  0.9+    061109 A24  0.5-  0.5+  

051105 213  0.5-  0.2-    051230 699  0.1-  1.1+    061113 A24  0.7+  0.8+  

051105 232  0.1-  0.2+    051231 704  0.6+  0.2+    061113 A24  1.4-  1.5+  

051105 232  0.1+  0.1-    051231 704  0.8-  0.1+    061117 704  0.4+  0.5-  

051105 232  0.3+  0.2-    051231 704  0.7+  0.1+    061117 704  0.6+  1.0-  

051107 704  0.1+  0.1+    051231 704  0.6+  0.3-    061117 704  0.3+  0.4-  

051107 704  0.8-  0.0     2006/                     061117 704  0.1-  0.3-  

051107 704  0.1+  0.1+    060101 J76  0.0   0.2-    061117 170  0.0   0.2-  

051107 704  0.7+  0.3+    060101 J76  0.5-  0.0     061117 170  0.4-  0.0   

051107 850  0.8+  0.7-    060101 213  0.9-  0.1-    061117 170  0.5-  0.1-  

051107 850  0.6+  0.2-    060101 213  0.9-  0.3-    061123 703  1.0-  0.1+  

051107 147  0.3-  0.2-    060101 213  0.9-  0.1-    061123 703  0.4-  1.3-  

051107 147  0.2-  0.2-    060101 J97  1.1-  0.1-    061123 703 (2.2+  0.4+) 

051107 147  0.8-  0.1-    060103 939  0.1+  0.3+    061123 703  0.2+  0.1-  

051107 147  0.6-  0.2-    060103 939  0.4-  0.5+    061127 204  0.3-  0.1+  

051108 A82  0.6+  0.4-    060103 939  0.6-  0.7+    061129 704  0.9-  0.9-  

051108 A82  0.5+  1.9-    060103 J76  0.6-  0.9+    061129 704  0.3+  1.3+  

051108 A82 (0.1+  2.4-)   060103 J76  0.6-  0.1+    061129 704  0.7+  0.3+  

051112 673  1.0-  0.1+    060103 J76  1.5-  0.2+    061129 704  1.5+  0.3-  

051112 673  0.7-  0.1+    060104 699  1.4+  0.6+    061129 704  1.1-  0.0   

051112 673  0.8-  0.0     060104 699 (2.6+  0.7+)   061208 J97  1.3-  1.1+  

051112 673  1.0-  0.0     060104 699 (3.2+  1.2+)   061215 699  1.7+  0.7+  

051115 644  0.5-  0.2+    060104 213  0.6-  0.1+    061215 699  0.7+  0.5+  

051115 644  0.6-  0.0     060104 213  0.8-  0.1+    061215 699 (2.5+  0.3+) 

051115 644  1.0-  0.2+    060104 213  1.8-  0.3-    061215 215  0.5-  0.8-  

051119 240  0.5-  0.2+    060105 G96 (3.4+  0.0 )   061223 A50  0.1+  0.1-  

051119 240  0.2-  0.7+    060105 G96 (2.8+  0.0 )   061223 A50  0.5+  0.0   

051119 240  0.2-  0.4+    060105 G96 (2.7+  0.0 )   061223 A50  0.6+  0.3+  

051121 213  0.6-  0.1+    060105 G96 (3.7+  0.0 )   061223 A50  0.5+  0.1+  

051121 213  0.3-  0.1+    060106 204  0.6-  0.3-    061223 A50  0.4+  0.2+  

051121 213  0.4-  0.2-    060106 204  0.8-  0.0     061223 A50  0.5+  0.1+  

051122 691  0.7+  0.0     060107 701  0.0   0.2+    061226 J97  0.6-  0.3-  

051122 691  1.2+  0.1-    060107 701  0.5-  0.4+    061226 J97 (2.3+  0.6+) 

051122 691 (4.4+  2.8-)   060107 701  0.6-  0.3+    061226 J97 (3.0+  0.4+) 

051122 349  0.5+  0.1-    060107 561  1.4-  0.2-                            

051122 349  0.9+  0.1+    060107 561  0.6-  0.3-                            

NAKANO

         **** Don't distribute anyone except personal use only ****

                (C) Copyright 2007 OAA/ComputingSection

write mail from CFAD0::NAKANO on 2007-03-05 06:21:26(JST).

 



 



 

    C/2005 R4 (LINEAR)                                                    

Epoch 2006 Mar. 6.0 TT = JDT 2453800.5  

T 2006 Mar. 8.00877 TT                                  Nakano

q   5.1884336            (2000.0)            P               Q

z  +0.0004850      Peri.    6.88630     +0.54215327     +0.80313660

 +/-0.0000028      Node    63.77186     +0.75721007     -0.59442960

e   0.9974836      Incl.  164.01279     +0.36428387     +0.04031183

From 375 observations 2005 Sept. 13-2006 Sept. 22, mean residual 0".57.

   (1/a)org.= +0.001085, (1/a)fut.= +0.001136 (+/-0.000003), Q= 7.



NAKANO

         **** Don't distribute anyone except personal use only ****

                (C) Copyright 2006 OAA/ComputingSection

write mail from CFAD0::NAKANO on 2006-09-25 05:53:58(JST).

 





    C/2005 R4 (LINEAR)                                                    

Epoch 2006 Mar. 6.0 TT = JDT 2453800.5  

T 2006 Mar. 8.01273 TT                                  Nakano

q   5.1885476            (2000.0)            P               Q

z  +0.0004254      Peri.    6.88717     +0.54216610     +0.80312908

 +/-0.0000394      Node    63.77182     +0.75720088     -0.59444042

e   0.9977930      Incl.  164.01303     +0.36428388     +0.04030221

From 279 observations 2005 Sept. 13-Dec. 28, mean residual 0".54.

   (1/a)org.= +0.001026, (1/a)fut.= +0.001076 (+/-0.000039), Q= 6.



NAKANO

         **** Don't distribute anyone except personal use only ****

                (C) Copyright 2006 OAA/ComputingSection

write mail from CFAD0::NAKANO on 2006-01-01 05:09:23(JST).

 





    C/2005 R4 (LINEAR)

Epoch 2006 Mar. 6.0 TT = JDT 2453800.5  

T 2006 Mar. 7.80801 TT                                  Nakano

q   5.1884824            (2000.0)            P               Q

z  +0.0006811      Peri.    6.86069     +0.54178333     +0.80337602

 +/-0.0000895      Node    63.77252     +0.75748032     -0.59409235

e   0.9964663      Incl.  164.01068     +0.36427240     +0.04051234

From 224 observations 2005 Sept. 13-Dec. 6, mean residual 0".52.

   (1/a)org.= +0.001281, (1/a)fut.= +0.001332 (+/-0.000090), Q= 5.



NAKANO

         **** Don't distribute anyone except personal use only ****

                (C) Copyright 2005 OAA/ComputingSection

write mail from CFAD0::NAKANO on 2005-12-08 01:42:10(JST).

 



    C/2005 R4 (LINEAR)

T 2006 Mar. 8.87292 TT                                  Nakano

q   5.1875047            (2000.0)            P               Q

                   Peri.    6.99597     +0.54371636     +0.80209586

                   Node    63.77014     +0.75605793     -0.59588417

e   1.0            Incl.  164.01614     +0.36434727     +0.03955102

From 88 observations 2005 Sept. 13-Oct. 24.



NAKANO

         **** Don't distribute anyone except personal use only ****

                (C) Copyright 2005 OAA/ComputingSection

write mail from CFAD0::NAKANO on 2005-11-03 23:39:18(JST).

 



◎C/2005 R4の軌道と予報位置です



 少しなげいたせいか,門田健一氏がちょっと暗めの彗星を観測してくれました.

なお,氏の CCD全光度は17.7等でした.これが我が国での初観測です.



    C/2005 R4 (LINEAR)

T 2006 Mar. 8.91167 TT                                  Nakano

q   5.1873954            (2000.0)            P               Q

                   Peri.    7.00074     +0.54378632     +0.80204949

                   Node    63.76993     +0.75600659     -0.59594889

e   1.0            Incl.  164.01633     +0.36434939     +0.03951633

From 75 observations 2005 Sept. 13-Oct. 24.

 

Date/        TT  R.A.(2000) Decl.     Delta   r     Daily motion  Mag.  Moon Age

              h    h  m       。  ,                      ,  / PA 。  m1      。

2005 Oct. 25 18  05 17.72  +20 20.0   4.566  5.285    16.5 / 272  17.2   50  .43

          26 18  05 16.55  +20 20.4   4.550  5.284    16.8 / 271  17.2   62  .34

          27 18  05 15.35  +20 20.8   4.535  5.282    17.1 / 271  17.2   74  .26

          28 18  05 14.14  +20 21.2   4.521  5.281    17.3 / 271  17.2   86  .18

          29 18  05 12.91  +20 21.5   4.506  5.279    17.6 / 271  17.2   99  .11

          30 18  05 11.66  +20 21.8   4.492  5.278    17.9 / 271  17.2  111  .06

          31 18  05 10.39  +20 22.1   4.479  5.277    18.1 / 271  17.2  124  .02

     Nov.  1 18  05 09.10  +20 22.3   4.465  5.275    18.4 / 271  17.2  137  .00

           2 18  05 07.79  +20 22.5   4.452  5.274    18.6 / 270  17.2  151  .01

           3 18  05 06.47  +20 22.6   4.440  5.273    18.9 / 270  17.2  163  .03

           4 18  05 05.13  +20 22.7   4.427  5.271    19.1 / 270  17.1  173  .08

           5 18  05 03.77  +20 22.8   4.415  5.270    19.3 / 270  17.1  165  .16

           6 18  05 02.40  +20 22.8   4.404  5.269    19.5 / 270  17.1  152  .25

           7 18  05 01.01  +20 22.7   4.393  5.267    19.8 / 270  17.1  138  .35

           8 18  04 59.60  +20 22.7   4.382  5.266    20.0 / 270  17.1  123  .46

           9 18  04 58.18  +20 22.5   4.371  5.265    20.2 / 270  17.1  109  .58

          10 18  04 56.75  +20 22.3   4.361  5.263    20.4 / 269  17.1   95  .69

          11 18  04 55.30  +20 22.1   4.352  5.262    20.6 / 269  17.1   80  .79

          12 18  04 53.84  +20 21.9   4.343  5.261    20.7 / 269  17.1   66  .87

          13 18  04 52.36  +20 21.5   4.334  5.260    20.9 / 269  17.1   52  .94

          14 18  04 50.88  +20 21.2   4.326  5.258    21.1 / 269  17.1   38  .98

          15 18  04 49.38  +20 20.7   4.318  5.257    21.2 / 269  17.1   24 1.00

          16 18  04 47.87  +20 20.3   4.310  5.256    21.4 / 269  17.1   12  .99

          17 18  04 46.35  +20 19.7   4.303  5.255    21.5 / 269  17.1    7  .97

          18 18  04 44.82  +20 19.1   4.297  5.254    21.7 / 268  17.1   18  .92

          19 18  04 43.28  +20 18.5   4.291  5.252    21.8 / 268  17.1   30  .86

          20 18  04 41.73  +20 17.8   4.285  5.251    21.9 / 268  17.1   43  .78

          21 18  04 40.18  +20 17.1   4.280  5.250    22.0 / 268  17.1   55  .70

          22 18  04 38.61  +20 16.3   4.275  5.249    22.1 / 268  17.1   67  .61

          23 18  04 37.05  +20 15.4   4.271  5.248    22.2 / 268  17.1   79  .52

